FW0394 Weather Reports


Display with metric or nautical units.
time (UTC)temp
F
wind
direction
speed
MPH
gust
MPH
rain 1hr
in
rain 24hr
in
rain mn
in
humidity
%
barometer
mb
20260905044003 82 0 0.0 0.0 0.00 0.00 0.00 78 1012.2
20260905043503 82 0 0.0 0.0 0.00 0.00 0.00 77 1012.2
20260905043004 83 0 0.0 0.0 0.00 0.00 0.00 77 1012.2
20260905042503 83 0 0.0 0.0 0.00 0.00 0.00 77 1012.1
20260905042003 83 159 0.0 4.0 0.00 0.00 0.00 77 1012.0
20260905041503 83 160 1.0 4.0 0.00 0.00 0.00 76 1012.0
20260905041212 83 160 1.0 4.0 0.00 0.00 0.00 76 1011.9
20260905040713 83 161 0.0 2.0 0.00 0.00 0.00 76 1011.9
20260905040004 84 161 0.0 2.0 0.00 0.00 0.00 76 1012.0
20260905035713 84 0 0.0 0.0 0.00 0.00 0.00 76 1011.9
20260905035003 84 0 0.0 0.0 0.00 0.00 0.00 75 1011.9
20260905034503 84 0 0.0 0.0 0.00 0.00 0.00 74 1011.9
20260905034003 84 0 0.0 0.0 0.00 0.00 0.00 74 1011.9
20260905033504 85 0 0.0 0.0 0.00 0.00 0.00 74 1011.8
20260905033003 85 0 0.0 0.0 0.00 0.00 0.00 73 1011.8
20260905032504 86 0 0.0 0.0 0.00 0.00 0.00 73 1011.7
20260905032003 86 0 0.0 0.0 0.00 0.00 0.00 72 1011.6
20260905031503 86 0 0.0 0.0 0.00 0.00 0.00 72 1011.6
20260905031003 86 0 0.0 0.0 0.00 0.00 0.00 72 1011.5
20260905030503 86 0 0.0 0.0 0.00 0.00 0.00 72 1011.5
20260905030003 86 0 0.0 0.0 0.00 0.00 0.00 72 1011.5
20260905025503 86 0 0.0 0.0 0.00 0.00 0.00 72 1011.5
20260905025003 86 0 0.0 0.0 0.00 0.00 0.00 72 1011.4
20260905024503 86 0 0.0 0.0 0.00 0.00 0.00 72 1011.5
20260905024003 87 0 0.0 0.0 0.00 0.00 0.00 72 1011.5
20260905023503 87 0 0.0 0.0 0.00 0.00 0.00 72 1011.5
20260905023003 87 158 0.0 2.0 0.00 0.00 0.00 72 1011.4
20260905022503 87 158 0.0 2.0 0.00 0.00 0.00 72 1011.4
20260905022214 87 158 0.0 2.0 0.00 0.00 0.00 72 1011.3
20260905021713 87 158 0.0 1.0 0.00 0.00 0.00 72 1011.3
20260905021003 87 158 0.0 1.0 0.00 0.00 0.00 71 1011.4
20260905020503 87 158 0.0 2.0 0.00 0.00 0.00 70 1011.3
20260905020003 88 158 0.0 2.0 0.00 0.00 0.00 71 1011.3
20260905015503 88 0 0.0 0.0 0.00 0.00 0.00 70 1011.1
20260905015003 88 0 0.0 0.0 0.00 0.00 0.00 70 1011.2
20260905014713 88 0 0.0 0.0 0.00 0.00 0.00 70 1011.1
20260905014003 88 0 0.0 0.0 0.00 0.00 0.00 69 1010.9
20260905013712 88 0 0.0 0.0 0.00 0.00 0.00 69 1010.9
20260905013003 89 0 0.0 0.0 0.00 0.00 0.00 68 1010.9
20260905012503 89 0 0.0 0.0 0.00 0.00 0.00 68 1010.8
20260905012003 89 0 0.0 0.0 0.00 0.00 0.00 68 1010.8
20260905011503 89 0 0.0 0.0 0.00 0.00 0.00 67 1010.7
20260905011003 90 0 0.0 0.0 0.00 0.00 0.00 67 1010.7
20260905010714 90 0 0.0 0.0 0.00 0.00 0.00 67 1010.7
20260905010003 90 0 0.0 0.0 0.00 0.00 0.00 66 1010.7
20260905005504 90 0 0.0 0.0 0.00 0.00 0.00 66 1010.6
20260905005003 90 0 0.0 0.0 0.00 0.00 0.00 66 1010.6
20260905004503 90 163 0.0 1.0 0.00 0.00 0.00 66 1010.6
20260905004003 90 163 0.0 1.0 0.00 0.00 0.00 66 1010.7
20260905003503 91 0 0.0 1.0 0.00 0.00 0.00 66 1010.7
20260905003003 91 163 0.0 1.0 0.00 0.00 0.00 65 1010.8
20260905002503 92 163 0.0 2.0 0.00 0.00 0.00 64 1010.7
20260905002003 92 171 1.0 4.0 0.00 0.00 0.00 64 1010.6
20260905001504 92 178 2.0 4.0 0.00 0.00 0.00 62 1010.7
20260905001213 92 188 1.0 3.0 0.00 0.00 0.00 64 1010.6
20260905000503 92 182 1.0 5.0 0.00 0.00 0.00 64 1010.7
20260905000003 92 180 2.0 5.0 0.00 0.00 0.00 63 1010.7
20260904235503 92 194 2.0 5.0 0.00 0.00 0.00 62 1010.7
20260904235003 92 194 2.0 6.0 0.00 0.00 0.00 62 1010.7
20260904234504 92 176 1.0 6.0 0.00 0.00 0.00 63 1010.7
20260904234004 92 121 0.0 3.0 0.00 0.00 0.00 62 1010.7
20260904233503 92 211 0.0 2.0 0.00 0.00 0.00 63 1010.7
20260904233213 92 211 1.0 3.0 0.00 0.00 0.00 61 1010.8
20260904232503 93 211 1.0 3.0 0.00 0.00 0.00 61 1010.8
20260904232004 94 212 1.0 3.0 0.00 0.00 0.00 60 1010.9
20260904231713 94 212 1.0 3.0 0.00 0.00 0.00 60 1010.8
20260904231003 94 217 1.0 4.0 0.00 0.00 0.00 58 1011.0
20260904230713 94 219 1.0 4.0 0.00 0.00 0.00 59 1010.9
20260904230003 94 189 2.0 5.0 0.00 0.00 0.00 57 1010.9
20260904225713 94 185 2.0 5.0 0.00 0.00 0.00 57 1010.9
20260904225003 94 201 2.0 6.0 0.00 0.00 0.00 58 1010.9
20260904224503 94 203 2.0 7.0 0.00 0.00 0.00 59 1010.9
20260904224003 94 197 2.0 7.0 0.00 0.00 0.00 58 1010.8
20260904223503 94 191 2.0 8.0 0.00 0.00 0.00 57 1010.8
20260904223003 94 196 2.0 8.0 0.00 0.00 0.00 57 1010.8
20260904222503 94 201 2.0 6.0 0.00 0.00 0.00 57 1010.9
20260904222003 95 196 3.0 7.0 0.00 0.00 0.00 57 1010.9
20260904221503 95 195 3.0 8.0 0.00 0.00 0.00 55 1010.9
20260904221214 95 197 3.0 8.0 0.00 0.00 0.00 55 1010.9
20260904220503 96 201 4.0 8.0 0.00 0.00 0.00 54 1010.8
20260904220004 96 231 3.0 8.0 0.00 0.00 0.00 54 1010.8
20260904215503 96 223 3.0 9.0 0.00 0.00 0.00 54 1010.8
20260904215003 96 208 3.0 9.0 0.00 0.00 0.00 54 1010.8
20260904214503 96 213 4.0 9.0 0.00 0.00 0.00 55 1010.8
20260904214003 96 215 4.0 10.0 0.00 0.00 0.00 55 1010.8
20260904213503 96 209 4.0 10.0 0.00 0.00 0.00 55 1010.8
20260904213003 95 216 3.0 8.0 0.00 0.00 0.00 56 1010.8
20260904212503 95 224 4.0 9.0 0.00 0.00 0.00 55 1010.8
20260904212003 96 212 4.0 9.0 0.00 0.00 0.00 54 1010.8
20260904211503 96 210 4.0 11.0 0.00 0.00 0.00 55 1010.8
20260904211003 96 208 5.0 11.0 0.00 0.00 0.00 54 1010.9
20260904210503 96 221 4.0 10.0 0.00 0.00 0.00 54 1010.8
20260904210003 96 233 4.0 8.0 0.00 0.00 0.00 55 1010.8
20260904205503 96 211 4.0 8.0 0.00 0.00 0.00 57 1010.8
20260904205003 96 212 4.0 9.0 0.00 0.00 0.00 55 1010.8
20260904204713 96 212 4.0 11.0 0.00 0.00 0.00 54 1010.9
20260904204003 96 203 4.0 11.0 0.00 0.00 0.00 55 1010.8
20260904203503 96 217 3.0 7.0 0.00 0.00 0.00 56 1010.8
20260904203003 96 235 4.0 8.0 0.00 0.00 0.00 54 1010.8
20260904202504 96 218 4.0 12.0 0.00 0.00 0.00 56 1010.8
20260904202003 96 194 4.0 12.0 0.00 0.00 0.00 55 1010.9
20260904201504 95 174 4.0 11.0 0.00 0.00 0.00 58 1010.9
20260904201214 95 164 4.0 11.0 0.00 0.00 0.00 56 1011.0
20260904200503 96 180 4.0 11.0 0.00 0.00 0.00 56 1011.0
20260904200214 96 190 4.0 11.0 0.00 0.00 0.00 55 1011.0
20260904195714 96 205 4.0 11.0 0.00 0.00 0.00 55 1011.0
20260904195003 95 215 4.0 8.0 0.00 0.00 0.00 57 1011.0
20260904194503 95 215 4.0 8.0 0.00 0.00 0.00 57 1011.1
20260904194003 94 214 4.0 9.0 0.00 0.00 0.00 57 1011.2
20260904193503 94 208 4.0 9.0 0.00 0.00 0.00 57 1011.2
20260904193003 94 225 4.0 9.0 0.00 0.00 0.00 57 1011.2
20260904192504 94 247 4.0 9.0 0.00 0.00 0.00 57 1011.2
20260904192003 94 220 4.0 9.0 0.00 0.00 0.00 60 1011.2
20260904191714 94 200 4.0 9.0 0.00 0.00 0.00 59 1011.3
20260904191004 94 193 3.0 8.0 0.00 0.00 0.00 58 1011.4
20260904190714 94 186 3.0 8.0 0.00 0.00 0.00 58 1011.4
20260904190003 93 189 3.0 7.0 0.00 0.00 0.00 60 1011.3
20260904185503 93 208 3.0 8.0 0.00 0.00 0.00 58 1011.5
20260904185004 93 213 3.0 8.0 0.00 0.00 0.00 61 1011.5
20260904184504 93 242 3.0 8.0 0.00 0.00 0.00 60 1011.6
20260904184213 93 244 3.0 9.0 0.00 0.00 0.00 58 1011.5
20260904183714 92 228 4.0 9.0 0.00 0.00 0.00 59 1011.6
20260904183003 92 230 4.0 10.0 0.00 0.00 0.00 61 1011.6
20260904182503 92 204 4.0 7.0 0.00 0.00 0.00 59 1011.6
20260904182215 92 188 4.0 7.0 0.00 0.00 0.00 62 1011.6
20260904181504 92 191 4.0 8.0 0.00 0.00 0.00 60 1011.6
20260904181003 92 182 4.0 8.0 0.00 0.00 0.00 60 1011.6
20260904180714 91 169 4.0 8.0 0.00 0.00 0.00 60 1011.6
20260904180003 91 169 4.0 9.0 0.00 0.00 0.00 60 1011.6
20260904175503 91 176 4.0 9.0 0.00 0.00 0.00 61 1011.6
20260904175003 91 188 4.0 8.0 0.00 0.00 0.00 61 1011.7
20260904174503 91 213 3.0 7.0 0.00 0.00 0.00 60 1011.7
20260904174003 91 214 3.0 7.0 0.00 0.00 0.00 63 1011.7
20260904173503 91 219 3.0 6.0 0.00 0.00 0.00 62 1011.7
20260904173003 91 245 2.0 9.0 0.00 0.00 0.00 61 1011.7
20260904172503 90 252 3.0 9.0 0.00 0.00 0.00 61 1011.7
20260904172003 90 245 3.0 8.0 0.00 0.00 0.00 62 1011.7
20260904171503 90 219 3.0 8.0 0.00 0.00 0.00 63 1011.7
20260904171214 90 197 3.0 10.0 0.00 0.00 0.00 65 1011.8
20260904170503 89 181 4.0 10.0 0.00 0.00 0.00 64 1011.7
20260904170003 89 207 4.0 9.0 0.00 0.00 0.00 66 1011.6
20260904165503 88 241 3.0 8.0 0.00 0.00 0.00 64 1011.6
20260904165003 88 226 3.0 8.0 0.00 0.00 0.00 64 1011.6
20260904164503 88 207 3.0 9.0 0.00 0.00 0.00 66 1011.7
20260904164214 88 202 4.0 9.0 0.00 0.00 0.00 66 1011.6
20260904163503 87 203 4.0 9.0 0.00 0.00 0.00 66 1011.7
20260904163003 87 197 3.0 7.0 0.00 0.00 0.00 67 1011.7
20260904162503 86 187 3.0 8.0 0.00 0.00 0.00 68 1011.7
20260904162003 86 193 4.0 11.0 0.00 0.00 0.00 68 1011.6
20260904161503 86 201 4.0 11.0 0.00 0.00 0.00 67 1011.6
20260904161003 86 199 4.0 10.0 0.00 0.00 0.00 70 1011.7
20260904160713 86 189 4.0 10.0 0.00 0.00 0.00 69 1011.7
20260904160003 86 191 5.0 9.0 0.00 0.00 0.00 69 1011.8
20260904155503 85 189 5.0 10.0 0.00 0.00 0.00 69 1011.9
20260904155214 85 183 5.0 10.0 0.00 0.00 0.00 70 1011.8
20260904154503 85 187 4.0 9.0 0.00 0.00 0.00 70 1011.8
20260904154003 85 199 3.0 9.0 0.00 0.00 0.00 70 1011.7
20260904153503 84 206 3.0 9.0 0.00 0.00 0.00 70 1011.7
20260904153003 84 199 3.0 8.0 0.00 0.00 0.00 71 1011.8
20260904152503 84 208 3.0 7.0 0.00 0.00 0.00 71 1011.7
20260904152003 84 200 3.0 8.0 0.00 0.00 0.00 73 1011.7
20260904151712 83 190 4.0 8.0 0.00 0.00 0.00 72 1011.7
20260904151004 83 179 4.0 9.0 0.00 0.00 0.00 72 1011.7
20260904150503 83 178 4.0 8.0 0.00 0.00 0.00 73 1011.7
20260904150004 82 194 4.0 8.0 0.00 0.00 0.00 73 1011.8
20260904145712 82 214 3.0 8.0 0.00 0.00 0.00 73 1011.7
20260904145003 82 219 3.0 9.0 0.00 0.00 0.00 74 1011.8
20260904144503 82 187 3.0 9.0 0.00 0.00 0.00 74 1011.8
20260904144213 82 179 4.0 9.0 0.00 0.00 0.00 74 1011.7
20260904143503 81 184 4.0 7.0 0.00 0.00 0.00 74 1011.8
20260904143003 81 194 3.0 7.0 0.00 0.00 0.00 74 1011.7
20260904142504 81 184 3.0 6.0 0.00 0.00 0.00 76 1011.5
20260904142004 81 170 2.0 6.0 0.00 0.00 0.00 76 1011.6
20260904141503 80 187 2.0 6.0 0.00 0.00 0.00 77 1011.6
20260904141003 80 186 2.0 6.0 0.00 0.00 0.00 77 1011.6
20260904140503 80 179 3.0 7.0 0.00 0.00 0.00 77 1011.7
20260904140003 80 177 4.0 7.0 0.00 0.00 0.00 77 1011.7
20260904135714 80 176 4.0 7.0 0.00 0.00 0.00 77 1011.6
20260904135213 79 176 4.0 6.0 0.00 0.00 0.00 77 1011.6
20260904134503 79 163 3.0 7.0 0.00 0.00 0.00 78 1011.6
20260904134003 79 162 2.0 7.0 0.00 0.00 0.00 78 1011.5
20260904133503 79 156 2.0 5.0 0.00 0.00 0.00 79 1011.5
20260904133213 79 159 2.0 5.0 0.00 0.00 0.00 78 1011.5
20260904132503 78 169 2.0 5.0 0.00 0.00 0.00 79 1011.5
20260904132003 78 158 2.0 5.0 0.00 0.00 0.00 79 1011.4
20260904131503 78 141 2.0 7.0 0.00 0.00 0.00 79 1011.4
20260904131003 78 138 3.0 7.0 0.00 0.00 0.00 79 1011.3
20260904130714 78 134 3.0 7.0 0.00 0.00 0.00 79 1011.2
20260904130213 78 130 2.0 5.0 0.00 0.00 0.00 79 1011.1
20260904125503 78 124 2.0 4.0 0.00 0.00 0.00 80 1011.1
20260904125004 78 141 2.0 4.0 0.00 0.00 0.00 80 1011.0
20260904124503 77 156 2.0 4.0 0.00 0.00 0.00 80 1010.9
20260904124003 77 171 1.0 3.0 0.00 0.00 0.00 80 1010.9
20260904123503 77 174 0.0 3.0 0.00 0.00 0.00 80 1010.9
20260904123003 77 194 0.0 3.0 0.00 0.00 0.00 80 1010.7
20260904122505 77 194 0.0 3.0 0.00 0.00 0.00 80 1010.7
20260904122003 77 194 0.0 2.0 0.00 0.00 0.00 80 1010.7
20260904121714 77 194 0.0 2.0 0.00 0.00 0.00 80 1010.8
20260904121003 77 0 0.0 1.0 0.00 0.00 0.00 79 1010.8
20260904120503 77 0 0.0 0.0 0.00 0.00 0.00 79 1010.7
20260904120212 77 0 0.0 0.0 0.00 0.00 0.00 79 1010.7
20260904115503 77 194 0.0 2.0 0.00 0.00 0.00 78 1010.7
20260904115003 78 194 0.0 2.0 0.00 0.00 0.00 78 1010.7
20260904114503 78 194 0.0 3.0 0.00 0.00 0.00 78 1010.6
20260904114003 78 194 1.0 3.0 0.00 0.00 0.00 78 1010.5
20260904113503 78 194 0.0 3.0 0.00 0.00 0.00 77 1010.5
20260904113003 78 194 0.0 3.0 0.00 0.00 0.00 77 1010.5
20260904112503 78 194 0.0 3.0 0.00 0.00 0.00 77 1010.4
20260904112004 78 194 0.0 3.0 0.00 0.00 0.00 77 1010.7
20260904111503 78 194 1.0 3.0 0.00 0.00 0.00 76 1010.5
20260904111003 78 192 1.0 5.0 0.00 0.00 0.00 76 1010.5
20260904110713 78 188 2.0 5.0 0.00 0.00 0.00 76 1010.5
20260904110003 79 199 2.0 5.0 0.00 0.00 0.00 76 1010.5
20260904105713 79 200 2.0 5.0 0.00 0.00 0.00 76 1010.4
20260904105003 79 201 2.0 5.0 0.00 0.00 0.00 75 1010.4
20260904104504 79 202 2.0 8.0 0.00 0.00 0.00 75 1010.3
20260904104003 79 201 2.0 8.0 0.00 0.00 0.00 74 1010.3
20260904103503 79 205 2.0 7.0 0.00 0.01 0.00 74 1010.4
20260904103003 80 202 2.0 6.0 0.00 0.01 0.00 74 1010.4
20260904102503 80 207 3.0 7.0 0.00 0.01 0.00 74 1010.4
20260904102004 80 210 3.0 7.0 0.00 0.01 0.00 73 1010.4
20260904101503 80 211 3.0 7.0 0.00 0.01 0.00 73 1010.4
20260904101003 80 211 4.0 10.0 0.00 0.01 0.00 73 1010.4
20260904100504 80 212 4.0 10.0 0.00 0.01 0.00 73 1010.3
20260904100003 80 217 3.0 9.0 0.00 0.01 0.00 73 1010.3
20260904095503 80 215 3.0 8.0 0.00 0.01 0.00 72 1010.2
20260904095003 81 206 3.0 9.0 0.00 0.01 0.00 72 1010.2
20260904094503 81 202 4.0 10.0 0.00 0.01 0.00 71 1010.1
20260904094003 81 203 4.0 10.0 0.00 0.01 0.00 71 1010.1
20260904093504 81 205 4.0 12.0 0.00 0.01 0.00 71 1010.1
20260904093004 81 200 4.0 12.0 0.00 0.01 0.00 71 1010.1
20260904092503 81 203 4.0 9.0 0.00 0.01 0.00 71 1009.9
20260904092003 81 207 4.0 13.0 0.00 0.01 0.00 70 1009.9
20260904091504 81 201 5.0 13.0 0.00 0.01 0.00 70 1009.8
20260904091003 81 202 6.0 14.0 0.00 0.01 0.00 71 1009.7
20260904090503 81 200 6.0 15.0 0.00 0.01 0.00 71 1009.7
20260904090003 81 203 6.0 15.0 0.00 0.01 0.00 71 1009.7
20260904085503 81 207 6.0 14.0 0.00 0.01 0.00 71 1009.8
20260904085003 81 208 5.0 14.0 0.00 0.01 0.00 71 1009.7
20260904084503 81 206 5.0 14.0 0.00 0.01 0.00 71 1009.7
20260904084003 81 208 5.0 13.0 0.00 0.01 0.00 71 1009.7
20260904083503 81 215 5.0 13.0 0.00 0.01 0.00 71 1009.6
20260904083003 81 215 5.0 11.0 0.00 0.01 0.00 71 1009.6
20260904082503 81 210 6.0 16.0 0.00 0.01 0.00 70 1009.7
20260904082213 82 208 6.0 16.0 0.00 0.01 0.00 69 1009.6
20260904081503 82 203 5.0 13.0 0.00 0.01 0.00 68 1009.6
20260904081003 82 200 5.0 14.0 0.00 0.01 0.00 68 1009.7
20260904080503 82 200 6.0 17.0 0.00 0.01 0.00 68 1009.7
20260904080004 82 200 5.0 17.0 0.00 0.01 0.00 68 1009.7
20260904075714 82 202 5.0 17.0 0.00 0.01 0.00 68 1009.8
20260904075003 82 204 6.0 15.0 0.00 0.01 0.00 68 1009.7
20260904074714 82 205 6.0 15.0 0.00 0.01 0.00 67 1009.8
20260904074213 82 204 5.0 17.0 0.00 0.01 0.00 67 1009.8
20260904073503 82 210 5.0 15.0 0.00 0.01 0.00 67 1009.7
20260904073213 82 209 5.0 15.0 0.00 0.01 0.00 67 1009.7
20260904072503 82 210 5.0 12.0 0.00 0.01 0.00 67 1009.7
20260904072003 82 208 5.0 12.0 0.00 0.01 0.00 67 1009.8
20260904071503 82 197 4.0 9.0 0.00 0.01 0.00 66 1009.7
20260904071214 82 196 5.0 11.0 0.00 0.01 0.00 66 1009.7
20260904070714 82 196 5.0 11.0 0.00 0.01 0.00 66 1009.7
20260904070003 82 195 5.0 14.0 0.00 0.01 0.00 66 1009.7
20260904065503 83 196 5.0 14.0 0.00 0.01 0.00 65 1009.8
20260904065004 83 191 5.0 13.0 0.00 0.01 0.00 65 1009.7
20260904064503 83 191 5.0 13.0 0.00 0.01 0.00 65 1009.7
20260904064214 83 197 5.0 13.0 0.00 0.01 0.00 65 1009.7
20260904063713 83 195 5.0 12.0 0.00 0.01 0.00 65 1009.7
20260904063212 83 191 5.0 12.0 0.00 0.01 0.00 65 1009.8
20260904062713 83 190 5.0 12.0 0.00 0.01 0.00 65 1009.7
20260904062214 83 189 5.0 14.0 0.00 0.01 0.00 65 1009.8
20260904061503 83 187 5.0 11.0 0.00 0.01 0.00 65 1009.7
20260904061003 83 180 5.0 10.0 0.00 0.01 0.00 65 1009.7
20260904060503 83 181 5.0 12.0 0.00 0.01 0.00 65 1009.6
20260904060003 83 182 5.0 12.0 0.00 0.01 0.00 65 1009.6
20260904055503 83 183 5.0 12.0 0.00 0.01 0.00 65 1009.6
20260904055003 83 182 5.0 12.0 0.00 0.01 0.00 65 1009.6
20260904054503 83 185 5.0 14.0 0.00 0.01 0.00 65 1009.5
20260904054003 83 189 6.0 14.0 0.00 0.01 0.00 65 1009.5
20260904053503 83 182 6.0 14.0 0.00 0.01 0.00 65 1009.4
20260904053214 84 179 6.0 16.0 0.00 0.01 0.00 64 1009.4
20260904052504 84 178 5.0 16.0 0.00 0.01 0.00 64 1009.3
20260904052003 84 180 5.0 11.0 0.00 0.01 0.00 64 1009.3
20260904051503 84 175 7.0 14.0 0.00 0.01 0.00 64 1009.2
20260904051004 84 169 7.0 14.0 0.00 0.01 0.00 63 1009.3
20260904050713 84 169 6.0 16.0 0.00 0.01 0.00 63 1009.2
20260904050214 84 169 5.0 16.0 0.00 0.01 0.00 63 1009.3
20260904045503 84 163 6.0 13.0 0.00 0.01 0.01 63 1009.2
20260904045003 84 162 6.0 13.0 0.00 0.01 0.01 63 1009.2
20260904044503 84 158 5.0 12.0 0.00 0.01 0.01 64 1009.2